Tracking 33176 objects as of 12-Feb-2026
HD Live streaming from Space Station
objects crossing your sky now

STARLINK-32704

Track STARLINK-32704 now!
10-day predictions
STARLINK-32704 is classified as:


NORAD ID: 62826
Int'l Code: 2025-018W
Perigee: 481.5 km
Apogee: 483.2 km
Inclination: 53.2 °
Period: 94.1 minutes
Semi major axis: 6853 km
RCS: Unknown
Launch date: January 24, 2025
Source: United States (US)
Launch site: AIR FORCE WESTERN TEST RANGE (AFWTR)
Your satellite tracking list
Your tracking list is empty




NASA's NSSDC Master Catalog

Two Line Element Set (TLE):
1 62826U 25018W   26043.38146051  .00029619  00000-0  10085-2 0  9996
2 62826  53.1619  67.1636 0001241 103.5613 256.5526 15.30190710 59290
Source of the keplerian elements: AFSPC